FW3299 Weather Reports


time (UTC)temp
C
wind
direction
speed
KPH
gust
KPH
rain 1hr
cm
rain 24hr
cm
rain mn
cm
humidity
%
barometer
mb
20260504173019 28 90 4.8 16.1 0.00 0.00 0.00 44 1015.9
20260504172019 27 158 4.8 12.9 0.00 0.00 0.00 48 1015.9
20260504171019 27 113 3.2 11.3 0.00 0.00 0.00 44 1015.9
20260504151019 25 23 8.0 16.1 0.00 0.00 0.00 48 1016.9
20260504141019 23 45 9.7 20.9 0.00 0.00 0.00 60 1016.9
20260504081039 16 0 1.6 3.2 0.00 0.00 0.00 85 1015.4
20260504050018 18 0.0 3.2 0.00 0.00 0.00 78 1016.5
20260504045038 18 0.0 3.2 0.00 0.00 0.00 78 1016.6
20260504044018 18 0.0 3.2 0.00 0.00 0.00 77 1016.7
20260504043018 18 0.0 3.2 0.00 0.00 0.00 77 1016.7
20260504042039 19 0 1.6 4.8 0.00 0.00 0.00 77 1016.8
20260504041018 19 0 3.2 6.4 0.00 0.00 0.00 77 1016.7
20260504040018 19 0.0 8.0 0.00 0.05 0.00 77 1016.7
20260504035019 19 0 3.2 8.0 0.00 0.05 0.00 76 1016.8
20260504034019 19 0 1.6 8.0 0.00 0.05 0.00 76 1016.7
20260504033019 19 0 1.6 6.4 0.00 0.05 0.00 76 1016.8
20260504032039 19 0 3.2 9.7 0.00 0.05 0.00 76 1016.9
20260504031019 19 0 3.2 8.0 0.00 0.05 0.00 75 1016.8
20260504030019 20 0 3.2 8.0 0.00 0.05 0.00 75 1016.7
20260504025019 20 0 3.2 8.0 0.00 0.05 0.00 75 1016.6
20260504024019 20 0 4.8 14.5 0.00 0.05 0.00 75 1016.7
20260504023019 20 0 4.8 12.9 0.00 0.05 0.00 75 1016.7
20260504022019 20 0 3.2 8.0 0.00 0.05 0.00 75 1016.5
20260504021039 20 0 4.8 9.7 0.00 0.05 0.00 75 1016.5
20260504020019 20 0 3.2 8.0 0.00 0.05 0.00 75 1016.3
20260504015019 20 0 4.8 16.1 0.00 0.05 0.00 75 1016.2
20260504014019 20 0 4.8 12.9 0.00 0.05 0.00 75 1016.2
20260504013019 20 0 4.8 12.9 0.00 0.05 0.00 74 1016.1
20260504012019 20 0 4.8 14.5 0.00 0.05 0.00 74 1015.9
20260504011019 21 0 4.8 12.9 0.00 0.05 0.00 73 1015.8
20260504010019 21 0 4.8 14.5 0.00 0.05 0.00 72 1015.7
20260504005019 21 0 6.4 14.5 0.00 0.05 0.00 71 1015.7
20260504004039 21 0 4.8 12.9 0.00 0.05 0.00 71 1015.7
20260504003019 21 0 4.8 17.7 0.00 0.05 0.00 70 1015.5
20260504002019 21 0 3.2 12.9 0.00 0.05 0.00 69 1015.4
20260504001019 22 0 4.8 14.5 0.00 0.05 0.00 68 1015.3
20260504000019 22 0 4.8 14.5 0.00 0.05 0.00 67 1015.3
20260503235019 22 0 8.0 14.5 0.00 0.05 0.00 66 1015.2
20260503234019 22 68 4.8 14.5 0.00 0.05 0.00 66 1015.1
20260503233019 22 68 8.0 17.7 0.00 0.05 0.00 65 1015.1
20260503232039 23 68 4.8 17.7 0.00 0.05 0.00 65 1015.0
20260503231026 23 68 4.8 19.3 0.00 0.05 0.00 64 1014.8
20260503230019 23 45 4.8 14.5 0.00 0.05 0.00 63 1015.0
20260503225019 23 90 4.8 14.5 0.00 0.05 0.00 64 1015.0
20260503224019 23 90 6.4 20.9 0.00 0.05 0.00 63 1014.9
20260503223019 23 23 6.4 11.3 0.00 0.05 0.00 61 1015.0
20260503222019 24 68 4.8 14.5 0.00 0.05 0.00 61 1014.9
20260503221019 24 45 6.4 16.1 0.00 0.05 0.00 60 1015.0
20260503220039 25 23 6.4 16.1 0.00 0.05 0.00 59 1014.8
20260503215019 25 45 8.0 14.5 0.00 0.10 0.00 58 1014.8
20260503214039 25 45 4.8 11.3 0.00 0.10 0.00 58 1014.8
20260503213039 23 90 3.2 9.7 0.00 0.10 0.00 62 1014.9
20260503212019 24 23 6.4 16.1 0.00 0.10 0.00 59 1014.8
20260503211019 26 90 6.4 17.7 0.00 0.10 0.00 58 1014.7
20260503210019 26 23 6.4 20.9 0.00 0.10 0.00 58 1014.9
20260503205019 25 45 6.4 16.1 0.00 0.30 0.00 56 1014.9
20260503204019 25 45 8.0 16.1 0.00 0.30 0.00 57 1015.1
20260503203019 25 23 3.2 6.4 0.00 0.30 0.00 62 1015.1
20260503202019 25 23 3.2 12.9 0.00 0.30 0.00 61 1015.2
20260503201019 25 23 3.2 16.1 0.00 0.30 0.00 62 1015.3
20260503200019 25 23 4.8 14.5 0.00 0.30 0.00 63 1015.2
20260503195019 25 23 4.8 14.5 0.00 0.66 0.00 65 1015.4
20260503194019 25 23 4.8 14.5 0.00 0.66 0.00 63 1015.6
20260503193019 25 23 4.8 12.9 0.00 0.66 0.00 61 1015.8
20260503192019 26 68 6.4 20.9 0.00 0.66 0.00 60 1016.0
20260503191019 25 68 9.7 16.1 0.00 0.66 0.00 60 1016.3
20260503190019 25 23 4.8 19.3 0.00 0.66 0.00 62 1016.4
20260503185039 25 23 8.0 20.9 0.00 0.71 0.00 62 1016.5
20260503184019 26 23 4.8 11.3 0.00 0.71 0.00 62 1016.4
20260503183019 24 23 3.2 8.0 0.00 0.71 0.00 66 1016.8
20260503182019 25 45 4.8 16.1 0.00 0.71 0.00 64 1016.8
20260503181019 25 0 8.0 19.3 0.00 0.71 0.00 63 1016.8
20260503180019 24 68 4.8 12.9 0.00 0.71 0.00 67 1016.9
20260503175019 23 90 8.0 16.1 0.00 0.71 0.00 67 1017.0
20260503174019 24 90 6.4 16.1 0.00 0.71 0.00 67 1017.1